Find Starlink 38040

NORAD ID: 69717 Int'l Des: 2026-147 Owner: SPXS Country: US Constellation: starlink operational
LEOCIRCULARRETROGRADE

当前视图

正在加载3D地球...

About Starlink 38040

Starlink 38040 (NORAD 69717) is a starlink constellation satellite (v2 mini) launched Jun 28, 2026 by SPXS of US. It operates in LEO, CIRCULAR, RETROGRADE orbit with a mass of 575.00 kg.

即将过境

Passes for default location (London). Set your location on the main map for personalized predictions.

高度历史

Loading altitude history...

两行轨道根数

1 69717U 26147P 26235.82738138 .00016871 00000-0 52382-3 0 9994
2 69717 97.2843 272.5962 0002837 89.9391 270.2177 15.33437146 9997
Epoch: Aug 23, 2026 • Age: 13 hours

当前状态

高度 481.7 km
远地点 / 近地点 N/A
速度 7.62 km/s
星下点 -38.76°S, 25.44°W
发射日期 Jun 28, 2026
运行时间 0.1 years
类型 internet

技术详情

分类 Payload
质量 575.00 kg
干质量 530.00 kg
总质量 575.00 kg
长度 0.30 m
直径 4.10 m
跨度 29.00 m
形状 Box
制造商 SPXS
平台类型 Starlink V2MO
阶段状态 In Orbit
所有者/国家 SPXS/US

Most Searched